contact:dominique.lefevre@mio.osupytheas.fr, maurice.libes@osupytheas.fr, didier.mallarino@osupytheas.fr
Project:EMSO http://www.emso-fr.org/EMSO-France
Depth: 2436.0 m
Title:EMSO Ligure Ouest : Data MII capteur MICROCAT
DateTime_Computer,Latitude,Longitude,Temperature,Conductivity,Pressure,DateTime_Instrument
DateTime_Computer,Latitude,Longitude,degC,S m-1,dbar,DateTime_Instrument
2021-01-31T00:02:14Z,42.805,6.029,13.3024,4.60060,2470.147,2021-1-31T02:03:17Z
2021-01-31T00:05:17Z,42.805,6.029,13.3006,4.60079,2470.1,2021-1-31T02:06:20Z
2021-01-31T00:08:21Z,42.805,6.029,13.3021,4.60063,2470.077,2021-1-31T02:09:23Z
2021-01-31T00:11:24Z,42.805,6.029,13.3004,4.60079,2470.087,2021-1-31T02:12:26Z
2021-01-31T00:14:27Z,42.805,6.029,13.3023,4.60089,2470.087,2021-1-31T02:15:29Z
2021-01-31T00:17:30Z,42.805,6.029,13.3026,4.60069,2470.087,2021-1-31T02:18:33Z
2021-01-31T00:20:33Z,42.805,6.029,13.3015,4.60061,2470.077,2021-1-31T02:21:36Z
2021-01-31T00:23:36Z,42.805,6.029,13.3014,4.60065,2470.063,2021-1-31T02:24:39Z
2021-01-31T00:26:39Z,42.805,6.029,13.3006,4.60078,2470.087,2021-1-31T02:27:42Z
2021-01-31T00:29:42Z,42.805,6.029,13.3037,4.60074,2470.063,2021-1-31T02:30:45Z
2021-01-31T00:32:46Z,42.805,6.029,13.3018,4.60092,2470.053,2021-1-31T02:33:48Z
2021-01-31T00:35:49Z,42.805,6.029,13.3023,4.60070,2470.063,2021-1-31T02:36:51Z
2021-01-31T00:38:52Z,42.805,6.029,13.3014,4.60088,2470.053,2021-1-31T02:39:54Z
2021-01-31T00:41:55Z,42.805,6.029,13.3021,4.60070,2470.087,2021-1-31T02:42:58Z
2021-01-31T00:44:58Z,42.805,6.029,13.3009,4.60070,2470.063,2021-1-31T02:46:01Z
2021-01-31T00:48:01Z,42.805,6.029,13.3020,4.60068,2470.03,2021-1-31T02:49:04Z
2021-01-31T00:51:04Z,42.805,6.029,13.3019,4.60080,2470.053,2021-1-31T02:52:07Z
2021-01-31T00:54:07Z,42.805,6.029,13.3028,4.60081,2470.017,2021-1-31T02:55:10Z
2021-01-31T00:57:11Z,42.805,6.029,13.3028,4.60067,2470.063,2021-1-31T02:58:13Z
2021-01-31T01:00:14Z,42.805,6.029,13.3030,4.60060,2470.077,2021-1-31T03:01:16Z
2021-01-31T01:03:17Z,42.805,6.029,13.3029,4.60031,2470.03,2021-1-31T03:04:19Z
2021-01-31T01:06:20Z,42.805,6.029,13.3023,4.60032,2470.04,2021-1-31T03:07:23Z
2021-01-31T01:09:23Z,42.805,6.029,13.3029,4.60051,2470.03,2021-1-31T03:10:26Z
2021-01-31T01:12:26Z,42.805,6.029,13.3035,4.60052,2470.03,2021-1-31T03:13:29Z
2021-01-31T01:15:29Z,42.805,6.029,13.3021,4.60060,2470.04,2021-1-31T03:16:32Z
2021-01-31T01:18:32Z,42.805,6.029,13.3025,4.60043,2470.04,2021-1-31T03:19:35Z
2021-01-31T01:21:36Z,42.805,6.029,13.3029,4.60075,2470.04,2021-1-31T03:22:38Z
2021-01-31T01:24:39Z,42.805,6.029,13.3026,4.60076,2470.03,2021-1-31T03:25:41Z
2021-01-31T01:27:42Z,42.805,6.029,13.3050,4.60039,2470.03,2021-1-31T03:28:44Z
2021-01-31T01:30:45Z,42.805,6.029,13.3017,4.60054,2470.03,2021-1-31T03:31:48Z
2021-01-31T01:33:48Z,42.805,6.029,13.3007,4.60074,2470.03,2021-1-31T03:34:51Z
2021-01-31T01:36:51Z,42.805,6.029,13.3011,4.60084,2470.007,2021-1-31T03:37:54Z
2021-01-31T01:39:54Z,42.805,6.029,13.3015,4.60050,2470.03,2021-1-31T03:40:57Z
2021-01-31T01:42:57Z,42.805,6.029,13.3009,4.60069,2470.017,2021-1-31T03:44:00Z
2021-01-31T01:46:00Z,42.805,6.029,13.3025,4.60079,2470.017,2021-1-31T03:47:03Z
2021-01-31T01:49:04Z,42.805,6.029,13.3034,4.60047,2470.03,2021-1-31T03:50:06Z
2021-01-31T01:52:07Z,42.805,6.029,13.3014,4.60067,2470.017,2021-1-31T03:53:09Z
2021-01-31T01:55:10Z,42.805,6.029,13.3015,4.60062,2470.03,2021-1-31T03:56:13Z
2021-01-31T01:58:13Z,42.805,6.029,13.3030,4.60023,2470.03,2021-1-31T03:59:16Z
2021-01-31T02:01:16Z,42.805,6.029,13.3021,4.60032,2470.04,2021-1-31T04:02:19Z
2021-01-31T02:04:19Z,42.805,6.029,13.3023,4.60042,2470.03,2021-1-31T04:05:22Z
2021-01-31T02:07:22Z,42.805,6.029,13.3019,4.60021,2469.993,2021-1-31T04:08:25Z
2021-01-31T02:10:25Z,42.805,6.029,13.3018,4.60013,2470.017,2021-1-31T04:11:28Z
2021-01-31T02:13:29Z,42.805,6.029,13.3022,4.60009,2470.017,2021-1-31T04:14:31Z
2021-01-31T02:16:32Z,42.805,6.029,13.3018,4.60016,2470.007,2021-1-31T04:17:34Z
2021-01-31T02:19:35Z,42.805,6.029,13.3017,4.60025,2470.03,2021-1-31T04:20:38Z
2021-01-31T02:22:38Z,42.805,6.029,13.3019,4.60062,2469.993,2021-1-31T04:23:41Z
2021-01-31T02:25:41Z,42.805,6.029,13.3018,4.60074,2470.017,2021-1-31T04:26:44Z
2021-01-31T02:28:44Z,42.805,6.029,13.3006,4.60069,2470.017,2021-1-31T04:29:47Z
2021-01-31T02:31:47Z,42.805,6.029,13.3004,4.60044,2470.007,2021-1-31T04:32:50Z
2021-01-31T02:34:50Z,42.805,6.029,13.3027,4.60059,2470.007,2021-1-31T04:35:53Z
2021-01-31T02:37:54Z,42.805,6.029,13.3019,4.60039,2470.03,2021-1-31T04:38:56Z
2021-01-31T02:40:57Z,42.805,6.029,13.3004,4.60029,2469.993,2021-1-31T04:41:59Z
2021-01-31T02:44:00Z,42.805,6.029,13.3008,4.60057,2470.04,2021-1-31T04:45:02Z
2021-01-31T02:47:03Z,42.805,6.029,13.3020,4.60081,2470.03,2021-1-31T04:48:06Z
2021-01-31T02:50:06Z,42.805,6.029,13.3010,4.60078,2470.03,2021-1-31T04:51:09Z
2021-01-31T02:53:09Z,42.805,6.029,13.3024,4.60068,2470.03,2021-1-31T04:54:12Z
2021-01-31T02:56:12Z,42.805,6.029,13.3015,4.60085,2469.993,2021-1-31T04:57:15Z
2021-01-31T02:59:15Z,42.805,6.029,13.3020,4.60054,2470.03,2021-1-31T05:00:18Z
2021-01-31T03:02:19Z,42.805,6.029,13.3017,4.60068,2470.017,2021-1-31T05:03:21Z
2021-01-31T03:05:22Z,42.805,6.029,13.3025,4.60072,2470.017,2021-1-31T05:06:24Z
2021-01-31T03:08:25Z,42.805,6.029,13.3048,4.60052,2470.03,2021-1-31T05:09:27Z
2021-01-31T03:11:28Z,42.805,6.029,13.3019,4.60060,2470.017,2021-1-31T05:12:31Z
2021-01-31T03:14:31Z,42.805,6.029,13.3016,4.60066,2470.007,2021-1-31T05:15:34Z
2021-01-31T03:17:34Z,42.805,6.029,13.3022,4.60032,2470.03,2021-1-31T05:18:37Z
2021-01-31T03:20:37Z,42.805,6.029,13.3021,4.60020,2469.993,2021-1-31T05:21:40Z
2021-01-31T03:23:40Z,42.805,6.029,13.3031,4.60031,2469.993,2021-1-31T05:24:43Z
2021-01-31T03:26:44Z,42.805,6.029,13.3024,4.60049,2470.03,2021-1-31T05:27:46Z
2021-01-31T03:29:47Z,42.805,6.029,13.3018,4.60037,2469.993,2021-1-31T05:30:49Z
2021-01-31T03:32:50Z,42.805,6.029,13.3028,4.60010,2470.03,2021-1-31T05:33:52Z
2021-01-31T03:35:53Z,42.805,6.029,13.3014,4.60023,2470.03,2021-1-31T05:36:56Z
2021-01-31T03:38:56Z,42.805,6.029,13.3019,4.60052,2470.017,2021-1-31T05:39:59Z
2021-01-31T03:41:59Z,42.805,6.029,13.3015,4.60042,2469.97,2021-1-31T05:43:02Z
2021-01-31T03:45:02Z,42.805,6.029,13.3029,4.60026,2470.017,2021-1-31T05:46:05Z
2021-01-31T03:48:05Z,42.805,6.029,13.3021,4.60014,2470.017,2021-1-31T05:49:08Z
2021-01-31T03:51:09Z,42.805,6.029,13.3023,4.60030,2470.017,2021-1-31T05:52:11Z
2021-01-31T03:54:12Z,42.805,6.029,13.3017,4.60060,2469.993,2021-1-31T05:55:14Z
2021-01-31T03:57:15Z,42.805,6.029,13.3022,4.60026,2470.017,2021-1-31T05:58:17Z
2021-01-31T04:00:18Z,42.805,6.029,13.3019,4.60017,2470.017,2021-1-31T06:01:21Z
2021-01-31T04:03:21Z,42.805,6.029,13.3019,4.60043,2470.03,2021-1-31T06:04:24Z
2021-01-31T04:06:24Z,42.805,6.029,13.2993,4.60013,2470.017,2021-1-31T06:07:27Z
2021-01-31T04:09:27Z,42.805,6.029,13.2995,4.60019,2470.03,2021-1-31T06:10:30Z
2021-01-31T04:12:30Z,42.805,6.029,13.3026,4.60013,2470.04,2021-1-31T06:13:33Z
2021-01-31T04:15:33Z,42.805,6.029,13.3010,4.60024,2470.03,2021-1-31T06:16:36Z
2021-01-31T04:18:37Z,42.805,6.029,13.2993,4.60003,2470.053,2021-1-31T06:19:39Z
2021-01-31T04:21:40Z,42.805,6.029,13.3000,4.59999,2470.053,2021-1-31T06:22:42Z
2021-01-31T04:24:43Z,42.805,6.029,13.2990,4.60016,2470.04,2021-1-31T06:25:45Z
2021-01-31T04:27:46Z,42.805,6.029,13.3005,4.60014,2470.04,2021-1-31T06:28:49Z
2021-01-31T04:30:49Z,42.805,6.029,13.3018,4.60033,2470.04,2021-1-31T06:31:52Z
2021-01-31T04:33:52Z,42.805,6.029,13.3025,4.60034,2470.04,2021-1-31T06:34:55Z
2021-01-31T04:36:55Z,42.805,6.029,13.3019,4.60041,2470.007,2021-1-31T06:37:58Z
2021-01-31T04:39:58Z,42.805,6.029,13.3022,4.60033,2470.017,2021-1-31T06:41:01Z
2021-01-31T04:43:02Z,42.805,6.029,13.3011,4.60052,2470.03,2021-1-31T06:44:04Z
2021-01-31T04:46:05Z,42.805,6.029,13.3015,4.60029,2470.03,2021-1-31T06:47:07Z
2021-01-31T04:49:08Z,42.805,6.029,13.3015,4.60060,2470.04,2021-1-31T06:50:10Z
2021-01-31T04:52:11Z,42.805,6.029,13.3013,4.60064,2470.04,2021-1-31T06:53:14Z
2021-01-31T04:55:14Z,42.805,6.029,13.3011,4.60089,2470.017,2021-1-31T06:56:17Z
2021-01-31T04:58:17Z,42.805,6.029,13.3009,4.60046,2470.04,2021-1-31T06:59:20Z
2021-01-31T05:01:20Z,42.805,6.029,13.3021,4.60050,2470.077,2021-1-31T07:02:23Z
2021-01-31T05:04:23Z,42.805,6.029,13.3033,4.60019,2470.04,2021-1-31T07:05:26Z
2021-01-31T05:07:27Z,42.805,6.029,13.3014,4.60068,2470.053,2021-1-31T07:08:29Z
2021-01-31T05:10:30Z,42.805,6.029,13.3019,4.60124,2470.087,2021-1-31T07:11:32Z
2021-01-31T05:13:33Z,42.805,6.029,13.3023,4.60102,2470.04,2021-1-31T07:14:35Z
2021-01-31T05:16:36Z,42.805,6.029,13.3035,4.60084,2470.087,2021-1-31T07:17:39Z
2021-01-31T05:19:39Z,42.805,6.029,13.3025,4.60092,2470.077,2021-1-31T07:20:42Z
2021-01-31T05:22:42Z,42.805,6.029,13.3015,4.60077,2470.063,2021-1-31T07:23:45Z
2021-01-31T05:25:45Z,42.805,6.029,13.3019,4.60082,2470.063,2021-1-31T07:26:48Z
2021-01-31T05:28:48Z,42.805,6.029,13.3021,4.60064,2470.1,2021-1-31T07:29:51Z
2021-01-31T05:31:52Z,42.805,6.029,13.3014,4.60102,2470.087,2021-1-31T07:32:54Z
2021-01-31T05:34:55Z,42.805,6.029,13.3029,4.60060,2470.124,2021-1-31T07:35:57Z
2021-01-31T05:37:58Z,42.805,6.029,13.3023,4.60092,2470.087,2021-1-31T07:39:00Z
2021-01-31T05:41:01Z,42.805,6.029,13.3021,4.60085,2470.087,2021-1-31T07:42:04Z
2021-01-31T05:44:04Z,42.805,6.029,13.3032,4.60046,2470.11,2021-1-31T07:45:07Z
2021-01-31T05:47:07Z,42.805,6.029,13.3031,4.60057,2470.1,2021-1-31T07:48:10Z
2021-01-31T05:50:10Z,42.805,6.029,13.3021,4.60042,2470.087,2021-1-31T07:51:13Z
2021-01-31T05:53:13Z,42.805,6.029,13.3018,4.60044,2470.11,2021-1-31T07:54:16Z
2021-01-31T05:56:17Z,42.805,6.029,13.3011,4.60060,2470.147,2021-1-31T07:57:19Z
2021-01-31T05:59:20Z,42.805,6.029,13.3006,4.60072,2470.124,2021-1-31T08:00:22Z
2021-01-31T06:02:23Z,42.805,6.029,13.3021,4.60086,2470.133,2021-1-31T08:03:25Z
2021-01-31T06:05:26Z,42.805,6.029,13.3024,4.60061,2470.147,2021-1-31T08:06:29Z
2021-01-31T06:08:29Z,42.805,6.029,13.3011,4.60066,2470.133,2021-1-31T08:09:32Z
2021-01-31T06:11:32Z,42.805,6.029,13.3022,4.60089,2470.147,2021-1-31T08:12:35Z
2021-01-31T06:14:35Z,42.805,6.029,13.3019,4.60072,2470.171,2021-1-31T08:15:38Z
2021-01-31T06:17:38Z,42.805,6.029,13.3029,4.60087,2470.156,2021-1-31T08:18:41Z
2021-01-31T06:20:42Z,42.805,6.029,13.3031,4.60059,2470.133,2021-1-31T08:21:44Z
2021-01-31T06:23:45Z,42.805,6.029,13.3029,4.60066,2470.147,2021-1-31T08:24:47Z
2021-01-31T06:26:48Z,42.805,6.029,13.3015,4.60050,2470.194,2021-1-31T08:27:50Z
2021-01-31T06:29:51Z,42.805,6.029,13.3040,4.60039,2470.147,2021-1-31T08:30:54Z
2021-01-31T06:32:54Z,42.805,6.029,13.3053,4.60056,2470.156,2021-1-31T08:33:57Z
2021-01-31T06:35:57Z,42.805,6.029,13.3009,4.60072,2470.133,2021-1-31T08:37:00Z
2021-01-31T06:39:00Z,42.805,6.029,13.3051,4.60051,2470.171,2021-1-31T08:40:03Z
2021-01-31T06:42:03Z,42.805,6.029,13.3024,4.60041,2470.18,2021-1-31T08:43:06Z
2021-01-31T06:45:06Z,42.805,6.029,13.3034,4.60054,2470.194,2021-1-31T08:46:09Z
2021-01-31T06:48:10Z,42.805,6.029,13.3016,4.60068,2470.194,2021-1-31T08:49:12Z
2021-01-31T06:51:13Z,42.805,6.029,13.3037,4.60063,2470.194,2021-1-31T08:52:15Z
2021-01-31T06:54:16Z,42.805,6.029,13.3031,4.60077,2470.203,2021-1-31T08:55:19Z
2021-01-31T06:57:19Z,42.805,6.029,13.3025,4.60046,2470.217,2021-1-31T08:58:22Z
2021-01-31T07:00:22Z,42.805,6.029,13.3030,4.60027,2470.227,2021-1-31T09:01:25Z
2021-01-31T07:03:25Z,42.805,6.029,13.3020,4.60079,2470.18,2021-1-31T09:04:28Z
2021-01-31T07:06:28Z,42.805,6.029,13.3015,4.60086,2470.24,2021-1-31T09:07:31Z
2021-01-31T07:09:31Z,42.805,6.029,13.3010,4.60077,2470.203,2021-1-31T09:10:34Z
2021-01-31T07:12:35Z,42.805,6.029,13.3027,4.60082,2470.203,2021-1-31T09:13:37Z
2021-01-31T07:15:38Z,42.805,6.029,13.3021,4.60039,2470.217,2021-1-31T09:16:40Z
2021-01-31T07:18:41Z,42.805,6.029,13.3007,4.60049,2470.227,2021-1-31T09:19:43Z
2021-01-31T07:21:44Z,42.805,6.029,13.3013,4.60067,2470.203,2021-1-31T09:22:47Z
2021-01-31T07:24:47Z,42.805,6.029,13.3024,4.60063,2470.264,2021-1-31T09:25:50Z
2021-01-31T07:27:50Z,42.805,6.029,13.3012,4.60099,2470.227,2021-1-31T09:28:53Z
2021-01-31T07:30:53Z,42.805,6.029,13.3018,4.60094,2470.24,2021-1-31T09:31:56Z
2021-01-31T07:33:56Z,42.805,6.029,13.3013,4.60067,2470.24,2021-1-31T09:34:59Z
2021-01-31T07:37:00Z,42.805,6.029,13.3004,4.60086,2470.25,2021-1-31T09:38:02Z
2021-01-31T07:40:03Z,42.805,6.029,13.3000,4.60093,2470.25,2021-1-31T09:41:05Z
2021-01-31T07:43:06Z,42.805,6.029,13.2996,4.60104,2470.227,2021-1-31T09:44:08Z
2021-01-31T07:46:09Z,42.805,6.029,13.3006,4.60082,2470.25,2021-1-31T09:47:12Z
2021-01-31T07:49:12Z,42.805,6.029,13.3004,4.60048,2470.264,2021-1-31T09:50:15Z
2021-01-31T07:52:15Z,42.805,6.029,13.3022,4.60047,2470.227,2021-1-31T09:53:18Z
2021-01-31T07:55:18Z,42.805,6.029,13.3015,4.60062,2470.24,2021-1-31T09:56:21Z
2021-01-31T07:58:21Z,42.805,6.029,13.3014,4.60067,2470.264,2021-1-31T09:59:24Z
2021-01-31T08:01:25Z,42.805,6.029,13.3004,4.60067,2470.25,2021-1-31T10:02:27Z
2021-01-31T08:04:28Z,42.805,6.029,13.3006,4.60053,2470.227,2021-1-31T10:05:30Z
2021-01-31T08:07:31Z,42.805,6.029,13.3012,4.60099,2470.273,2021-1-31T10:08:33Z
2021-01-31T08:10:34Z,42.805,6.029,13.3012,4.60084,2470.273,2021-1-31T10:11:37Z
2021-01-31T08:13:37Z,42.805,6.029,13.3019,4.60057,2470.273,2021-1-31T10:14:40Z
2021-01-31T08:16:40Z,42.805,6.029,13.3023,4.60072,2470.273,2021-1-31T10:17:43Z
2021-01-31T08:19:43Z,42.805,6.029,13.3011,4.60052,2470.264,2021-1-31T10:20:46Z
2021-01-31T08:22:46Z,42.805,6.029,13.3007,4.60106,2470.287,2021-1-31T10:23:49Z
2021-01-31T08:25:50Z,42.805,6.029,13.3002,4.60068,2470.297,2021-1-31T10:26:52Z
2021-01-31T08:28:53Z,42.805,6.029,13.3004,4.60099,2470.287,2021-1-31T10:29:55Z
2021-01-31T08:31:56Z,42.805,6.029,13.3017,4.60049,2470.287,2021-1-31T10:32:59Z
2021-01-31T08:34:59Z,42.805,6.029,13.3016,4.60072,2470.287,2021-1-31T10:36:02Z
2021-01-31T08:38:02Z,42.805,6.029,13.3016,4.60084,2470.287,2021-1-31T10:39:05Z
2021-01-31T08:41:05Z,42.805,6.029,13.3011,4.60059,2470.31,2021-1-31T10:42:08Z
2021-01-31T08:44:08Z,42.805,6.029,13.3018,4.60067,2470.287,2021-1-31T10:45:11Z
2021-01-31T08:47:11Z,42.805,6.029,13.3004,4.60061,2470.287,2021-1-31T10:48:14Z
2021-01-31T08:50:15Z,42.805,6.029,13.3001,4.60052,2470.264,2021-1-31T10:51:17Z
2021-01-31T08:53:18Z,42.805,6.029,13.3000,4.60067,2470.287,2021-1-31T10:54:20Z
2021-01-31T08:56:21Z,42.805,6.029,13.3006,4.60081,2470.273,2021-1-31T10:57:24Z
2021-01-31T08:59:24Z,42.805,6.029,13.3010,4.60069,2470.297,2021-1-31T11:00:27Z
2021-01-31T09:02:27Z,42.805,6.029,13.3000,4.60079,2470.273,2021-1-31T11:03:30Z
2021-01-31T09:05:30Z,42.805,6.029,13.3003,4.60072,2470.31,2021-1-31T11:06:33Z
2021-01-31T09:08:33Z,42.805,6.029,13.3026,4.60072,2470.264,2021-1-31T11:09:36Z
2021-01-31T09:11:36Z,42.805,6.029,13.3012,4.60102,2470.287,2021-1-31T11:12:39Z
2021-01-31T09:14:40Z,42.805,6.029,13.3004,4.60058,2470.297,2021-1-31T11:15:42Z
2021-01-31T09:17:43Z,42.805,6.029,13.3003,4.60057,2470.32,2021-1-31T11:18:45Z
2021-01-31T09:20:46Z,42.805,6.029,13.3005,4.60080,2470.297,2021-1-31T11:21:49Z
2021-01-31T09:23:49Z,42.805,6.029,13.3006,4.60088,2470.334,2021-1-31T11:24:52Z
2021-01-31T09:26:52Z,42.805,6.029,13.3000,4.60082,2470.25,2021-1-31T11:27:55Z
2021-01-31T09:29:55Z,42.805,6.029,13.3016,4.60052,2470.287,2021-1-31T11:30:58Z
2021-01-31T09:32:58Z,42.805,6.029,13.3005,4.60078,2470.273,2021-1-31T11:34:01Z
2021-01-31T09:36:01Z,42.805,6.029,13.3008,4.60046,2470.273,2021-1-31T11:37:04Z
2021-01-31T09:39:05Z,42.805,6.029,13.3004,4.60043,2470.31,2021-1-31T11:40:07Z
2021-01-31T09:42:08Z,42.805,6.029,13.3003,4.60073,2470.264,2021-1-31T11:43:10Z
2021-01-31T09:45:11Z,42.805,6.029,13.3001,4.60081,2470.31,2021-1-31T11:46:14Z
2021-01-31T09:48:14Z,42.805,6.029,13.3007,4.60059,2470.273,2021-1-31T11:49:17Z
2021-01-31T09:51:17Z,42.805,6.029,13.3009,4.60062,2470.25,2021-1-31T11:52:20Z
2021-01-31T09:54:20Z,42.805,6.029,13.3011,4.60041,2470.297,2021-1-31T11:55:23Z
2021-01-31T09:57:23Z,42.805,6.029,13.3005,4.60051,2470.287,2021-1-31T11:58:26Z
2021-01-31T10:00:26Z,42.805,6.029,13.3027,4.60068,2470.264,2021-1-31T12:01:29Z
2021-01-31T10:03:30Z,42.805,6.029,13.3007,4.60052,2470.273,2021-1-31T12:04:32Z
2021-01-31T10:06:33Z,42.805,6.029,13.3020,4.60063,2470.273,2021-1-31T12:07:35Z
2021-01-31T10:09:36Z,42.805,6.029,13.3021,4.60068,2470.273,2021-1-31T12:10:39Z
2021-01-31T10:12:39Z,42.805,6.029,13.3006,4.60064,2470.273,2021-1-31T12:13:42Z
2021-01-31T10:15:42Z,42.805,6.029,13.3011,4.60060,2470.31,2021-1-31T12:16:45Z
2021-01-31T10:18:45Z,42.805,6.029,13.3026,4.60069,2470.31,2021-1-31T12:19:48Z
2021-01-31T10:21:48Z,42.805,6.029,13.3002,4.60056,2470.273,2021-1-31T12:22:51Z
2021-01-31T10:24:51Z,42.805,6.029,13.3021,4.60064,2470.273,2021-1-31T12:25:54Z
2021-01-31T10:27:55Z,42.805,6.029,13.3032,4.60044,2470.31,2021-1-31T12:28:57Z
2021-01-31T10:30:58Z,42.805,6.029,13.3029,4.60059,2470.25,2021-1-31T12:32:00Z
2021-01-31T10:34:01Z,42.805,6.029,13.3000,4.60078,2470.297,2021-1-31T12:35:04Z
2021-01-31T10:37:04Z,42.805,6.029,13.3010,4.60064,2470.25,2021-1-31T12:38:07Z
2021-01-31T10:40:07Z,42.805,6.029,13.3019,4.60057,2470.297,2021-1-31T12:41:10Z
2021-01-31T10:43:10Z,42.805,6.029,13.3023,4.60069,2470.273,2021-1-31T12:44:13Z
2021-01-31T10:46:13Z,42.805,6.029,13.3002,4.60087,2470.25,2021-1-31T12:47:16Z
2021-01-31T10:49:17Z,42.805,6.029,13.3014,4.60044,2470.26,2021-1-31T12:50:19Z
2021-01-31T10:52:20Z,42.805,6.029,13.3007,4.60050,2470.287,2021-1-31T12:53:22Z
2021-01-31T10:55:23Z,42.805,6.029,13.3000,4.60046,2470.25,2021-1-31T12:56:25Z
2021-01-31T10:58:26Z,42.805,6.029,13.3005,4.60043,2470.25,2021-1-31T12:59:29Z
2021-01-31T11:01:29Z,42.805,6.029,13.2997,4.60045,2470.273,2021-1-31T13:02:32Z
2021-01-31T11:04:32Z,42.805,6.029,13.3005,4.60072,2470.25,2021-1-31T13:05:35Z
2021-01-31T11:07:35Z,42.805,6.029,13.3009,4.60051,2470.227,2021-1-31T13:08:38Z
2021-01-31T11:10:38Z,42.805,6.029,13.3003,4.60047,2470.273,2021-1-31T13:11:41Z
2021-01-31T11:13:42Z,42.805,6.029,13.3011,4.60059,2470.227,2021-1-31T13:14:44Z
2021-01-31T11:16:45Z,42.805,6.029,13.3002,4.60036,2470.217,2021-1-31T13:17:47Z
2021-01-31T11:19:48Z,42.805,6.029,13.3005,4.60046,2470.287,2021-1-31T13:20:50Z
2021-01-31T11:22:51Z,42.805,6.029,13.3004,4.60051,2470.217,2021-1-31T13:23:54Z
2021-01-31T11:25:54Z,42.805,6.029,13.3035,4.60058,2470.24,2021-1-31T13:26:57Z
2021-01-31T11:28:57Z,42.805,6.029,13.3000,4.60066,2470.24,2021-1-31T13:30:00Z
2021-01-31T11:32:00Z,42.805,6.029,13.3005,4.60022,2470.203,2021-1-31T13:33:03Z
2021-01-31T11:35:03Z,42.805,6.029,13.2998,4.60051,2470.203,2021-1-31T13:36:06Z
2021-01-31T11:38:07Z,42.805,6.029,13.3000,4.60021,2470.203,2021-1-31T13:39:09Z
2021-01-31T11:41:10Z,42.805,6.029,13.2998,4.60018,2470.203,2021-1-31T13:42:12Z
2021-01-31T11:44:13Z,42.805,6.029,13.2999,4.60030,2470.217,2021-1-31T13:45:15Z
2021-01-31T11:47:16Z,42.805,6.029,13.3006,4.60039,2470.194,2021-1-31T13:48:19Z
2021-01-31T11:50:19Z,42.805,6.029,13.3004,4.60009,2470.24,2021-1-31T13:51:22Z
2021-01-31T11:53:22Z,42.805,6.029,13.3003,4.60041,2470.217,2021-1-31T13:54:25Z
2021-01-31T11:56:25Z,42.805,6.029,13.2998,4.60029,2470.194,2021-1-31T13:57:28Z
2021-01-31T11:59:28Z,42.805,6.029,13.3002,4.60033,2470.203,2021-1-31T14:00:31Z
2021-01-31T12:02:32Z,42.805,6.029,13.3000,4.60040,2470.203,2021-1-31T14:03:34Z
2021-01-31T12:05:35Z,42.805,6.029,13.3006,4.60082,2470.217,2021-1-31T14:06:37Z
2021-01-31T12:08:38Z,42.805,6.029,13.3000,4.60061,2470.18,2021-1-31T14:09:41Z
2021-01-31T12:11:41Z,42.805,6.029,13.2998,4.60035,2470.18,2021-1-31T14:12:44Z
2021-01-31T12:14:44Z,42.805,6.029,13.2994,4.60052,2470.156,2021-1-31T14:15:47Z
2021-01-31T12:17:47Z,42.805,6.029,13.2994,4.60039,2470.194,2021-1-31T14:18:50Z
2021-01-31T12:20:50Z,42.805,6.029,13.3004,4.60048,2470.18,2021-1-31T14:21:53Z
2021-01-31T12:23:53Z,42.805,6.029,13.3004,4.60038,2470.156,2021-1-31T14:24:56Z
2021-01-31T12:26:57Z,42.805,6.029,13.2998,4.60009,2470.203,2021-1-31T14:27:59Z
2021-01-31T12:30:00Z,42.805,6.029,13.2998,4.60040,2470.171,2021-1-31T14:31:02Z
2021-01-31T12:33:03Z,42.805,6.029,13.3000,4.60044,2470.171,2021-1-31T14:34:06Z
2021-01-31T12:36:06Z,42.805,6.029,13.3001,4.60027,2470.156,2021-1-31T14:37:09Z
2021-01-31T12:39:09Z,42.805,6.029,13.2998,4.60028,2470.18,2021-1-31T14:40:12Z
2021-01-31T12:42:12Z,42.805,6.029,13.3000,4.60049,2470.171,2021-1-31T14:43:15Z
2021-01-31T12:45:15Z,42.805,6.029,13.2993,4.60039,2470.156,2021-1-31T14:46:18Z
2021-01-31T12:48:18Z,42.805,6.029,13.2998,4.60049,2470.156,2021-1-31T14:49:21Z
2021-01-31T12:51:22Z,42.805,6.029,13.2994,4.60044,2470.171,2021-1-31T14:52:24Z
2021-01-31T12:54:25Z,42.805,6.029,13.3004,4.60064,2470.171,2021-1-31T14:55:27Z
2021-01-31T12:57:28Z,42.805,6.029,13.3003,4.60057,2470.133,2021-1-31T14:58:31Z
2021-01-31T13:00:31Z,42.805,6.029,13.2999,4.60075,2470.171,2021-1-31T15:01:34Z
2021-01-31T13:03:34Z,42.805,6.029,13.3007,4.60044,2470.124,2021-1-31T15:04:37Z
2021-01-31T13:06:37Z,42.805,6.029,13.3002,4.60057,2470.133,2021-1-31T15:07:40Z
2021-01-31T13:09:40Z,42.805,6.029,13.3015,4.60059,2470.147,2021-1-31T15:10:43Z
2021-01-31T13:12:43Z,42.805,6.029,13.3001,4.60074,2470.11,2021-1-31T15:13:46Z
2021-01-31T13:15:47Z,42.805,6.029,13.3001,4.60034,2470.147,2021-1-31T15:16:49Z
2021-01-31T13:18:50Z,42.805,6.029,13.3004,4.60049,2470.133,2021-1-31T15:19:52Z
2021-01-31T13:21:53Z,42.805,6.029,13.2999,4.60064,2470.11,2021-1-31T15:22:56Z
2021-01-31T13:24:56Z,42.805,6.029,13.3000,4.60041,2470.147,2021-1-31T15:25:59Z
2021-01-31T13:27:59Z,42.805,6.029,13.3002,4.60072,2470.147,2021-1-31T15:29:02Z
2021-01-31T13:31:02Z,42.805,6.029,13.2999,4.60055,2470.156,2021-1-31T15:32:05Z
2021-01-31T13:34:05Z,42.805,6.029,13.3010,4.60041,2470.124,2021-1-31T15:35:08Z
2021-01-31T13:37:09Z,42.805,6.029,13.3004,4.60053,2470.11,2021-1-31T15:38:11Z
2021-01-31T13:40:12Z,42.805,6.029,13.3011,4.60062,2470.124,2021-1-31T15:41:14Z
2021-01-31T13:43:15Z,42.805,6.029,13.3000,4.60060,2470.124,2021-1-31T15:44:17Z
2021-01-31T13:46:18Z,42.805,6.029,13.2998,4.60029,2470.11,2021-1-31T15:47:21Z
2021-01-31T13:49:21Z,42.805,6.029,13.3009,4.60044,2470.147,2021-1-31T15:50:24Z
2021-01-31T13:52:24Z,42.805,6.029,13.3008,4.60046,2470.124,2021-1-31T15:53:27Z
2021-01-31T13:55:27Z,42.805,6.029,13.3000,4.60033,2470.1,2021-1-31T15:56:30Z
2021-01-31T13:58:30Z,42.805,6.029,13.3002,4.60053,2470.087,2021-1-31T15:59:33Z
2021-01-31T14:01:34Z,42.805,6.029,13.3023,4.60079,2470.077,2021-1-31T16:02:36Z
2021-01-31T14:04:37Z,42.805,6.029,13.3029,4.60076,2470.087,2021-1-31T16:05:39Z
2021-01-31T14:07:40Z,42.805,6.029,13.3025,4.60080,2470.1,2021-1-31T16:08:42Z
2021-01-31T14:10:43Z,42.805,6.029,13.3005,4.60059,2470.11,2021-1-31T16:11:46Z
2021-01-31T14:13:46Z,42.805,6.029,13.3009,4.60048,2470.077,2021-1-31T16:14:49Z
2021-01-31T14:16:49Z,42.805,6.029,13.3004,4.60033,2470.1,2021-1-31T16:17:52Z
2021-01-31T14:19:52Z,42.805,6.029,13.3010,4.60066,2470.087,2021-1-31T16:20:55Z
2021-01-31T14:22:55Z,42.805,6.029,13.3002,4.60047,2470.087,2021-1-31T16:23:58Z
2021-01-31T14:25:59Z,42.805,6.029,13.2998,4.60044,2470.087,2021-1-31T16:27:01Z
2021-01-31T14:29:02Z,42.805,6.029,13.3003,4.60036,2470.063,2021-1-31T16:30:04Z
2021-01-31T14:32:05Z,42.805,6.029,13.3008,4.60037,2470.077,2021-1-31T16:33:07Z
2021-01-31T14:35:08Z,42.805,6.029,13.2999,4.60060,2470.063,2021-1-31T16:36:11Z
2021-01-31T14:38:11Z,42.805,6.029,13.3031,4.60047,2470.053,2021-1-31T16:39:14Z
2021-01-31T14:41:14Z,42.805,6.029,13.3006,4.60049,2470.1,2021-1-31T16:42:17Z
2021-01-31T14:44:17Z,42.805,6.029,13.3007,4.60084,2470.077,2021-1-31T16:45:20Z
2021-01-31T14:47:20Z,42.805,6.029,13.3003,4.60067,2470.087,2021-1-31T16:48:23Z
2021-01-31T14:50:24Z,42.805,6.029,13.3007,4.60058,2470.063,2021-1-31T16:51:26Z
2021-01-31T14:53:27Z,42.805,6.029,13.3003,4.60057,2470.1,2021-1-31T16:54:29Z
2021-01-31T14:56:30Z,42.805,6.029,13.3002,4.60066,2470.077,2021-1-31T16:57:32Z
2021-01-31T14:59:33Z,42.805,6.029,13.2998,4.60025,2470.063,2021-1-31T17:00:36Z
2021-01-31T15:02:36Z,42.805,6.029,13.3007,4.60060,2470.053,2021-1-31T17:03:39Z
2021-01-31T15:05:39Z,42.805,6.029,13.3013,4.60057,2470.04,2021-1-31T17:06:42Z
2021-01-31T15:08:42Z,42.805,6.029,13.3001,4.60046,2470.087,2021-1-31T17:09:45Z
2021-01-31T15:11:45Z,42.805,6.029,13.3031,4.60048,2470.04,2021-1-31T17:12:48Z
2021-01-31T15:14:49Z,42.805,6.029,13.3006,4.60071,2470.04,2021-1-31T17:15:51Z